{"data":{"norad_id":36131,"epoch":"2026-05-25T00:11:15.279936Z","epoch_age_seconds":71436,"freshness":"FRESH","line1":"1 36131U 09075A   26145.00781574  .00000000  00000+0  00000+0 0  9993","line2":"2 36131   0.0128  97.4502 0000327 275.2792 129.9569  1.00269038 46325","mean_motion":1.00269038,"eccentricity":3.27e-5,"inclination_deg":0.0128,"raan_deg":97.4502,"arg_perigee_deg":275.2792,"mean_anomaly_deg":129.9569,"bstar":0,"rev_number":4632,"period_min":1436.1362477617,"perigee_km":35785.986250673,"apogee_km":35788.743874508,"semimajor_km":42165.502062591,"source":"CELESTRAK","updated_at":"2026-05-25T13:38:14.329237Z"}}